This is the latest recevied weather packets stored in our database for station/object IZ5MMH-14. If no packets are shown the sender has not sent any weather packets the latest 10 day(s).
| Time | Temp. | Humidity | Pressure | Rain* | Wind** | Luminosity | Snow |
|---|---|---|---|---|---|---|---|
| 1777497599 | 18.89° C | 97% | 1016 hPa | - | - | - | - |
| 1777496998 | 18.89° C | 95% | 1015.9 hPa | - | - | - | - |
| 1777496398 | 18.89° C | 92% | 1015.9 hPa | - | - | - | - |
| 1777495798 | 19.44° C | 90% | 1015.6 hPa | - | - | - | - |
| 1777495198 | 19.44° C | 87% | 1015.6 hPa | - | - | - | - |
| 1777494598 | 20° C | 86% | 1015.5 hPa | - | - | - | - |
| 1777493998 | 20° C | 84% | 1015.5 hPa | - | - | - | - |
| 1777493398 | 20° C | 83% | 1015.4 hPa | - | - | - | - |
| 1777492798 | 20° C | 80% | 1015.3 hPa | - | - | - | - |
| 1777492198 | 20° C | 78% | 1015.2 hPa | - | - | - | - |
| 1777491598 | 20° C | 73% | 1014.9 hPa | - | - | - | - |
| 1777490998 | 20.56° C | 72% | 1014.9 hPa | - | - | - | - |
| 1777490398 | 20.56° C | 69% | 1014.8 hPa | - | - | - | - |
| 1777489798 | 21.11° C | 65% | 1014.5 hPa | - | - | - | - |
| 1777489198 | 21.67° C | 61% | 1014.3 hPa | - | - | - | - |
| 1777488598 | 21.67° C | 58% | 1014.2 hPa | - | - | - | - |
| 1777487998 | 22.22° C | 53% | 1014.3 hPa | - | - | - | - |
| 1777487398 | 22.78° C | 50% | 1014.3 hPa | - | - | - | - |
| 1777486798 | 22.78° C | 47% | 1014.4 hPa | - | - | - | - |
| 1777486198 | 23.89° C | 44% | 1014.4 hPa | - | - | - | - |
| 1777485598 | 24.44° C | 43% | 1014.4 hPa | - | - | - | - |
| 1777484999 | 24.44° C | 43% | 1014.3 hPa | - | - | - | - |
| 1777484398 | 24.44° C | 42% | 1014.2 hPa | - | - | - | - |
| 1777483798 | 25° C | 40% | 1014.2 hPa | - | - | - | - |
| 1777483198 | 25° C | 39% | 1014.1 hPa | - | - | - | - |
* Rain since midnight (hover to see other rain measurements)
** Current wind speed in m/s (hover to see current wind gust speed)